Location: Lac Lasalle
(46.0398°N, 74.1576°W)
Time: 18:09:34
(UTC-05:00)

AO-73 - Pass Details

Date: 14 December 2019
Orbit: 581 x 664 km, 97.6° (Epoch: 21 January)

Event Time Altitude Azimuth Distance (km) Brightness Sun altitude
Rises 18:20:51 0° 198° (SSW) 2,963 ? -21.5°
Reaches altitude 10° 18:23:25 10° 212° (SSW) 2,046 ? -21.9°
Maximum altitude 18:27:03 24° 266° (W) 1,325 ? -22.5°
Drops below altitude 10° 18:30:39 10° 321° (NW) 2,021 ? -23.1°
Sets 18:33:12 0° 335° (NNW) 2,918 ? -23.6°
